Weather History for St. Joseph, MO

Change the Weather History Date:

Monday, February 25, 2013

  Actual Average Record
Temperature  
Mean Temperature 33 °F 35 °F  
Max Temperature 38 °F 46 °F 76 °F (1981)
Min Temperature 28 °F 24 °F -5 °F (2003)
Degree Days  
Heating Degree Days 32 30  
Month to date heating degree days 843 836  
Since 1 July heating degree days 4004 4219  
Cooling Degree Days 0 0  
Month to date cooling degree days 0 0  
Year to date cooling degree days 0 0  
Moisture  
Dew Point 25 °F    
Average Humidity 69    
Maximum Humidity 78    
Minimum Humidity 59    
Precipitation  
Precipitation 0.00 in 0.03 in 1.28 in (1951)
Month to date precipitation 0.37 0.81  
Year to date precipitation 1.01 1.37  
Sea Level Pressure  
Sea Level Pressure 29.95 in    
Wind  
Wind Speed 11 mph (NNE)    
Max Wind Speed 21 mph    
Max Gust Speed 25 mph    
Visibility 9 miles    
Events      
T = Trace of Precipitation, MM = Missing Value Source: NWS Daily Summary

Daily Weather History Graph

Daily Weather History Graph

Search for Another Location

Airport:

Trip Planner

Search our weather history database for the weather conditions in past years. The results will help you decide how hot, cold, wet, or windy it might be!

Date:

Astronomy

Feb. 25, 2013 Rise Set
Actual Time 6:58 AM CST 6:07 PM CST
Civil Twilight 6:31 AM CST 6:34 PM CST
Nautical Twilight 5:59 AM CST 7:06 PM CST
Astronomical Twilight 5:28 AM CST 7:37 PM CST
Moon 6:21 PM CST (2/25) 6:29 AM CST (2/25)
Length of Visible Light 12h 03m
Length of Day
11h 09m
Full, 100% of the Moon is Illuminated
Feb 25
Full
Feb 25
Full
Mar 4
Last Quarter
Mar 11
New
Mar 19
First Quarter

Hourly Weather History & Observations

Time (CST) Temp. Windchill Dew Point Humidity Pressure Visibility Wind Dir Wind Speed Gust Speed Precip Events Conditions
12:53 AM 35.1 °F 30.1 °F 23.0 °F 61% 30.02 in 10.0 mi ENE 5.8 mph - N/A   Overcast
1:53 AM 34.0 °F 27.2 °F 21.9 °F 61% 30.01 in 10.0 mi NE 8.1 mph - N/A   Mostly Cloudy
2:53 AM 33.1 °F 26.1 °F 23.0 °F 66% 30.03 in 10.0 mi NNE 8.1 mph - N/A   Scattered Clouds
3:53 AM 32.0 °F 24.8 °F 23.0 °F 69% 30.01 in 10.0 mi NE 8.1 mph - N/A   Partly Cloudy
4:53 AM 30.9 °F 25.2 °F 21.9 °F 69% 30.01 in 10.0 mi ENE 5.8 mph - N/A   Clear
5:53 AM 30.0 °F 24.1 °F 23.0 °F 75% 30.02 in 10.0 mi North 5.8 mph - N/A   Clear
6:53 AM 30.0 °F 22.4 °F 23.0 °F 75% 30.03 in 9.0 mi North 8.1 mph - N/A   Clear
7:53 AM 28.9 °F 19.8 °F 23.0 °F 78% 30.04 in 7.0 mi North 10.4 mph - N/A   Clear
8:53 AM 30.9 °F 23.5 °F 24.1 °F 76% 30.02 in 7.0 mi North 8.1 mph - N/A   Clear
9:53 AM 34.0 °F 26.6 °F 25.0 °F 70% 30.03 in 8.0 mi NNE 9.2 mph - N/A   Clear
10:53 AM 35.1 °F 27.4 °F 26.1 °F 70% 30.02 in 8.0 mi NNE 10.4 mph - N/A   Scattered Clouds
11:53 AM 36.0 °F 28.0 °F 27.0 °F 70% 30.01 in 9.0 mi NNE 11.5 mph - N/A   Partly Cloudy
12:53 PM 37.0 °F 30.4 °F 27.0 °F 67% 29.97 in 9.0 mi NNE 9.2 mph - N/A   Clear
1:53 PM 37.0 °F 28.5 °F 27.0 °F 67% 29.95 in 10.0 mi NNE 13.8 mph - N/A   Overcast
2:53 PM 37.0 °F 29.8 °F 28.0 °F 70% 29.94 in 9.0 mi NNE 10.4 mph - N/A   Overcast
3:53 PM 37.0 °F 29.8 °F 27.0 °F 67% 29.94 in 10.0 mi NNE 10.4 mph - N/A   Overcast
4:53 PM 37.9 °F 31.5 °F 27.0 °F 65% 29.92 in 10.0 mi ENE 9.2 mph - N/A   Overcast
5:53 PM 37.0 °F 28.9 °F 27.0 °F 67% 29.89 in 10.0 mi NNE 12.7 mph - N/A   Overcast
6:53 PM 37.0 °F 29.3 °F 27.0 °F 67% 29.88 in 10.0 mi NE 11.5 mph - N/A   Scattered Clouds
7:53 PM 36.0 °F 26.7 °F 27.0 °F 70% 29.82 in 10.0 mi NNE 15.0 mph - N/A   Overcast
8:53 PM 36.0 °F 28.0 °F 27.0 °F 70% 29.87 in 10.0 mi NE 11.5 mph - N/A   Overcast
9:53 PM 35.1 °F 25.5 °F 28.0 °F 76% 29.84 in 9.0 mi North 15.0 mph - N/A   Overcast
10:53 PM 35.1 °F 23.8 °F 28.0 °F 76% 29.81 in 8.0 mi NNE 20.7 mph - N/A   Overcast
11:53 PM 35.1 °F 25.2 °F 28.0 °F 76% 29.79 in 8.0 mi NNE 16.1 mph - N/A   Mostly Cloudy